パンスターズ彗星

P/2017 S9 ( PanSTARRS ) 2023

English version
Home page
Updated on May 29, 2022

---------------------------------------------------------------------

・ プロフィール

・ 軌道要素

Epoch 2023 Feb. 25.0 TT = JDT 2460000.5
T 2023 Feb. 27.06432 TT                                 MPCW
q   2.1915721            (2000.0)            P               Q
n   0.17570959     Peri.  237.52645     +0.90116501     -0.41164441
a   3.1569842      Node   146.21439     +0.43186234     +0.87960696
e   0.3058020      Incl.   14.13841     -0.03737044     +0.23841240
P   5.61
From 38 observations 2017 Sept. 19-Oct. 22, mean residual 0".4.

・ 光度変化

        m1 = 16.5 + 5 logΔ + 10.0 log r

---------------------------------------------------------------------

軌道要素はM.P.E.C. 2017-V13に掲載されたものです。
光度グラフはComet for Windowsで作成したものです。

---------------------------------------------------------------------

Copyright(C) Seiichi Yoshida (comet@aerith.net). All rights reserved.